Location: Taupo
(38.6830°S, 176.0830°E)
Time: 10:32:09
(UTC+12:00)

Meteor 1-27 - Visible Passes

Search period start: 24 April 2019 00:00
Search period end: 04 May 2019 00:00
Orbit: 837 x 894 km, 81.2° (Epoch: 22 April)

Date Brightness Start Highest point End Pass type
(mag) Time Alt. Az. Time Alt. Az. Time Alt. Az.
24 Apr 4.3 19:21:44 10° S 19:27:38 87° W 19:33:30 10° N visible
24 Apr 7.3 21:09:37 10° WSW 21:09:54 10° W 21:10:10 10° W visible
25 Apr 4.3 19:14:07 10° S 19:20:01 87° W 19:25:54 10° N visible
25 Apr 7.4 21:02:14 10° W 21:02:17 10° W 21:02:20 10° W visible
26 Apr 4.3 19:06:30 10° S 19:12:24 87° W 19:18:17 10° N visible
27 Apr 4.3 18:58:53 10° S 19:04:48 87° W 19:10:40 10° N visible
28 Apr 4.3 18:51:16 10° S 18:57:11 86° W 19:03:03 10° N visible
29 Apr 7.2 06:20:57 10° ENE 06:24:13 16° E 06:27:31 10° SE visible
29 Apr 4.4 18:43:39 10° S 18:49:34 86° W 18:55:27 10° N visible
30 Apr 7.2 06:13:19 10° ENE 06:16:36 16° E 06:19:55 10° SE visible
30 Apr 4.4 18:36:02 10° S 18:41:58 86° W 18:47:50 10° N visible
01 May 7.2 06:05:40 10° ENE 06:08:58 16° E 06:12:20 10° SE visible
01 May 4.4 18:28:25 10° S 18:34:21 86° W 18:40:14 10° N visible
02 May 7.2 05:58:02 10° ENE 06:01:21 16° E 06:04:43 10° SE visible
02 May 4.4 18:20:48 10° S 18:26:44 85° W 18:32:37 10° N visible
03 May 7.2 05:50:23 10° ENE 05:53:44 16° E 05:57:08 10° SE visible
03 May 4.4 18:13:12 10° S 18:19:08 85° W 18:25:01 10° N visible
